Weather History for Paynesville, MN

Change the Weather History Date:

Tuesday, September 10, 2013

  Actual Average (KLJF) Record (KLJF)
Temperature  
Mean Temperature 71 °F -  
Max Temperature 82 °F 75 °F 90 °F (1978)
Min Temperature 60 °F 51 °F 38 °F (1959)
Cooling Degree Days 6    
Growing Degree Days 21 (Base 50)    
Moisture  
Dew Point 61 °F    
Average Humidity 75    
Maximum Humidity 96    
Minimum Humidity 37    
Precipitation  
Precipitation 0.02 in - - ()
Sea Level Pressure  
Sea Level Pressure 29.92 in    
Wind  
Wind Speed 4 mph (West)    
Max Wind Speed 18 mph    
Max Gust Speed 25 mph    
Visibility 10 miles    
Events Rain , Thunderstorm    
Averages and records for this station are not official NWS values.
T = Trace of Precipitation, MM = Missing Value Source: NWS Daily Summary

Daily Weather History Graph

Daily Weather History Graph

Search for Another Location

Airport:

Trip Planner

Search our weather history database for the weather conditions in past years. The results will help you decide how hot, cold, wet, or windy it might be!

Date:

Astronomy

Sep. 10, 2013 Rise Set
Actual Time 6:51 AM CDT 7:39 PM CDT
Civil Twilight 6:21 AM CDT 8:08 PM CDT
Nautical Twilight 5:46 AM CDT 8:44 PM CDT
Astronomical Twilight 5:08 AM CDT 9:21 PM CDT
Moon 12:35 PM CDT (9/10) 10:25 PM CDT (9/10)
Length of Visible Light 13h 47m
Length of Day
12h 47m
Waxing Crescent, 28% of the Moon is Illuminated
Sep 10
Waxing Crescent
Sep 12
First Quarter
Sep 19
Full
Sep 26
Last Quarter
Oct 4
New

Hourly Weather History & Observations

Time (CDT) Temp. Heat Index Dew Point Humidity Pressure Visibility Wind Dir Wind Speed Gust Speed Precip Events Conditions
12:13 AM 66.4 °F - 63.7 °F 91% 29.79 in 10.0 mi Calm Calm - N/A Thunderstorm Clear
12:32 AM 65.8 °F - 63.9 °F 93% 29.81 in 10.0 mi Calm Calm - N/A   Clear
12:53 AM 66.6 °F - 64.4 °F 93% 29.82 in 10.0 mi Calm Calm - N/A   Scattered Clouds
1:12 AM 67.1 °F - 64.8 °F 92% 29.83 in 10.0 mi WSW 3.5 mph - N/A   Scattered Clouds
1:33 AM 66.9 °F - 64.6 °F 92% 29.84 in 10.0 mi West 4.6 mph - N/A   Scattered Clouds
1:52 AM 67.1 °F - 64.6 °F 92% 29.84 in 10.0 mi West 5.8 mph - N/A   Scattered Clouds
2:12 AM 67.1 °F - 64.0 °F 90% 29.84 in 10.0 mi West 5.8 mph - N/A   Clear
2:33 AM 67.1 °F - 63.5 °F 88% 29.85 in 10.0 mi West 5.8 mph - N/A   Clear
2:53 AM 66.2 °F - 63.5 °F 91% 29.86 in 10.0 mi Calm Calm - N/A   Clear
3:13 AM 65.5 °F - 63.5 °F 93% 29.85 in 10.0 mi Calm Calm - N/A   Clear
3:32 AM 64.4 °F - 62.8 °F 94% 29.85 in 10.0 mi Calm Calm - N/A   Clear
3:53 AM 64.6 °F - 63.3 °F 96% 29.85 in 10.0 mi West 3.5 mph - N/A   Clear
4:13 AM 65.1 °F - 63.3 °F 94% 29.86 in 10.0 mi West 3.5 mph - N/A   Clear
4:32 AM 65.3 °F - 63.5 °F 94% 29.87 in 10.0 mi West 4.6 mph - N/A   Clear
4:53 AM 65.3 °F - 63.5 °F 94% 29.86 in 10.0 mi NW 4.6 mph - N/A Rain Rain
5:13 AM 65.3 °F - 63.5 °F 94% 29.86 in 10.0 mi Calm Calm - 0.02 in Rain Light Rain
5:32 AM 64.8 °F - 63.5 °F 96% 29.86 in 10.0 mi Calm Calm - 0.02 in Rain Light Rain
5:53 AM 64.8 °F - 63.5 °F 96% 29.88 in 10.0 mi Calm Calm - 0.02 in Rain Light Rain
6:13 AM 65.3 °F - 63.9 °F 95% 29.90 in 10.0 mi SW 4.6 mph - N/A Rain Light Rain
6:32 AM 65.3 °F - 64.0 °F 96% 29.89 in 10.0 mi SSW 4.6 mph - N/A   Light Drizzle
6:53 AM 65.3 °F - 64.0 °F 96% 29.89 in 10.0 mi Calm Calm - N/A Rain Light Rain
7:13 AM 65.3 °F - 64.0 °F 96% 29.88 in 10.0 mi Calm Calm - N/A   Scattered Clouds
7:33 AM 65.5 °F - 64.4 °F 96% 29.89 in 7.0 mi Calm Calm - N/A   Clear
7:53 AM 65.5 °F - 64.4 °F 96% 29.89 in 7.0 mi Calm Calm - N/A   Clear
8:13 AM 66.0 °F - 64.9 °F 96% 29.89 in 10.0 mi Calm Calm - N/A   Scattered Clouds
8:32 AM 66.6 °F - 65.3 °F 96% 29.89 in 10.0 mi Calm Calm - N/A   Scattered Clouds
8:53 AM 67.1 °F - 65.5 °F 95% 29.89 in 10.0 mi Calm Calm - N/A   Scattered Clouds
9:13 AM 67.5 °F - 65.8 °F 95% 29.89 in 10.0 mi Calm Calm - N/A   Scattered Clouds
9:33 AM 68.7 °F - 66.7 °F 93% 29.90 in 10.0 mi SSW 4.6 mph - N/A   Scattered Clouds
9:52 AM 69.1 °F - 66.2 °F 91% 29.91 in 10.0 mi WSW 5.8 mph - N/A   Clear
10:13 AM 70.5 °F - 64.6 °F 81% 29.92 in 10.0 mi SW 8.1 mph - N/A   Scattered Clouds
10:33 AM 72.0 °F - 64.2 °F 77% 29.92 in 10.0 mi SW 6.9 mph - N/A   Scattered Clouds
10:52 AM 72.7 °F - 63.7 °F 73% 29.92 in 10.0 mi WSW 9.2 mph 16.1 mph N/A   Scattered Clouds
11:13 AM 74.1 °F - 63.7 °F 70% 29.93 in 10.0 mi WSW 10.4 mph - N/A   Mostly Cloudy
11:32 AM 75.4 °F - 63.5 °F 66% 29.93 in 10.0 mi WSW 11.5 mph - N/A   Mostly Cloudy
11:53 AM 78.1 °F - 62.4 °F 58% 29.93 in 10.0 mi WSW 11.5 mph 16.1 mph N/A   Scattered Clouds
12:13 PM 78.6 °F - 61.9 °F 56% 29.93 in 10.0 mi West 12.7 mph - N/A   Clear
12:32 PM 78.4 °F - 61.9 °F 57% 29.93 in 10.0 mi West 12.7 mph 17.3 mph N/A   Clear
12:52 PM 80.1 °F 81.1 °F 61.2 °F 52% 29.93 in 10.0 mi West 11.5 mph 17.3 mph N/A   Clear
1:13 PM 79.5 °F - 58.8 °F 49% 29.93 in 10.0 mi WSW 9.2 mph 17.3 mph N/A   Clear
1:32 PM 80.6 °F 80.7 °F 56.7 °F 44% 29.94 in 10.0 mi WSW 11.5 mph 18.4 mph N/A   Clear
1:53 PM 81.7 °F 81.2 °F 55.4 °F 40% 29.94 in 10.0 mi West 16.1 mph - N/A   Scattered Clouds
2:13 PM 81.1 °F 80.7 °F 54.1 °F 39% 29.94 in 10.0 mi WSW 10.4 mph 19.6 mph N/A   Scattered Clouds
2:32 PM 82.0 °F 81.2 °F 53.4 °F 37% 29.93 in 10.0 mi West 13.8 mph 19.6 mph N/A   Scattered Clouds
2:52 PM 82.4 °F 81.4 °F 53.6 °F 37% 29.93 in 10.0 mi WSW 11.5 mph 20.7 mph N/A   Clear
3:13 PM 80.8 °F 80.4 °F 53.6 °F 39% 29.93 in 10.0 mi West 13.8 mph 19.6 mph N/A   Clear
3:33 PM 81.0 °F 80.4 °F 53.4 °F 38% 29.94 in 10.0 mi West 16.1 mph 19.6 mph N/A   Clear
3:53 PM 81.0 °F - 52.5 °F 37% 29.94 in 10.0 mi West 18.4 mph 25.3 mph N/A   Clear
4:13 PM 81.5 °F 80.8 °F 53.6 °F 38% 29.94 in 10.0 mi West 11.5 mph 16.1 mph N/A   Clear
4:32 PM 81.0 °F 80.7 °F 55.0 °F 41% 29.93 in 10.0 mi West 11.5 mph 20.7 mph N/A   Clear
4:53 PM 80.8 °F 80.7 °F 55.4 °F 42% 29.93 in 10.0 mi West 10.4 mph - N/A   Clear
5:13 PM 81.0 °F 80.8 °F 55.9 °F 42% 29.94 in 10.0 mi West 9.2 mph - N/A   Clear
5:32 PM 79.7 °F - 56.3 °F 44% 29.94 in 10.0 mi West 8.1 mph - N/A   Clear
5:52 PM 78.6 °F - 56.7 °F 47% 29.94 in 10.0 mi WNW 10.4 mph - N/A   Clear
6:13 PM 77.2 °F - 57.4 °F 50% 29.95 in 10.0 mi WNW 8.1 mph - N/A   Clear
6:33 PM 75.2 °F - 57.7 °F 54% 29.95 in 10.0 mi WNW 6.9 mph - N/A   Clear
6:53 PM 75.0 °F - 58.1 °F 56% 29.96 in 10.0 mi WNW 8.1 mph - N/A   Clear
7:12 PM 73.0 °F - 58.1 °F 59% 29.97 in 10.0 mi WNW 5.8 mph - N/A   Clear
7:33 PM 70.9 °F - 58.3 °F 64% 29.97 in 10.0 mi Calm Calm - N/A   Clear
7:53 PM 69.6 °F - 58.3 °F 67% 29.97 in 10.0 mi Calm Calm - N/A   Clear
8:12 PM 68.2 °F - 58.3 °F 71% 29.98 in 10.0 mi Calm Calm - N/A   Clear
8:32 PM 66.4 °F - 59.0 °F 77% 29.98 in 10.0 mi Calm Calm - N/A   Clear
8:53 PM 64.9 °F - 59.0 °F 81% 29.99 in 10.0 mi Calm Calm - N/A   Clear
9:12 PM 64.2 °F - 59.0 °F 83% 29.99 in 10.0 mi Calm Calm - N/A   Clear
9:33 PM 63.5 °F - 59.0 °F 85% 29.99 in 10.0 mi Calm Calm - N/A   Clear
9:52 PM 61.9 °F - 58.3 °F 88% 29.99 in 10.0 mi Calm Calm - N/A   Clear
10:13 PM 61.7 °F - 58.3 °F 89% 29.99 in 10.0 mi Calm Calm - N/A   Clear
10:33 PM 61.3 °F - 58.3 °F 90% 30.00 in 10.0 mi Calm Calm - N/A   Clear
10:53 PM 61.2 °F - 58.5 °F 91% 30.00 in 10.0 mi Calm Calm - N/A   Clear
11:12 PM 61.9 °F - 59.0 °F 90% 30.00 in 10.0 mi Calm Calm - N/A   Clear
11:32 PM 60.8 °F - 58.5 °F 92% 30.00 in 10.0 mi Calm Calm - N/A   Clear
11:53 PM 60.4 °F - 58.3 °F 93% 30.00 in 10.0 mi Calm Calm - N/A   Clear